Torna al catalogo

HIPPARCOS

AttivoScienzaGTO
NORAD 20169·PAYLOAD·🇪🇺 EU

Lanciato Aug 8, 1989 da Guiana Space Centre

Loading…

TLE

In scadenzaSource: Space-Track

Epoca: Sep 14, 2026, 04:15 UTC

1 20169U 89062B   26257.17762866 -.00000044  00000-0  86910-3 0  9994
2 20169   6.8371 287.1015 7190170  49.2868 353.8352  2.26417982271371

Traccia HIPPARCOS in tempo reale con AllMySat

Download on the App Store